This demonstration page uses our WeatherBlox Daily Observations layout. Learn more.

Hourly Observations for October 5, 2019

Temp ( °F °C ) Dew Point ( °F °C ) Humidity (%) Winds ( mph kmh ) Pressure ( in mb ) Visibility ( mi km ) Precip ( " mm )
12:15 am 00:15 Cloudy with Fog 56 13.5 56 13.5 100 100 SSE 16 26 29.85 1011 0.5 0.804672 0 0
12:35 am 00:35 Cloudy with Mist and Fog 57 13.9 57 13.9 100 100 SSE 16 26 29.85 1011 0.75 1.207008 0 0
12:55 am 00:55 Cloudy with Mist and Fog 58 14.5 58 14.5 100 100 S 18 30 29.85 1011 1.25 2.01168 0 0
1:15 am 01:15 Cloudy with Mist and Fog 58 14.6 58 14.6 100 100 S 17 28 29.8 1009 0.75 1.207008 0 0
1:35 am 01:35 Cloudy with Fog 59 14.8 59 14.8 100 100 S 18 30 29.8 1009 0.5 0.804672 0 0
1:55 am 01:55 Cloudy with Mist and Fog 59 15.2 59 15.2 100 100 S 13 20 29.8 1009 1.75 2.816352 0 0
2:15 am 02:15 Cloudy with Mist and Fog 61 16 61 16 100 100 S 15 24 29.8 1009 4 6.437376 0 0
2:35 am 02:35 Cloudy with Nearby Thunderstorms 62 16.4 62 16.4 100 100 S 21 33 29.77 1008 4 6.437376 0 0
2:55 am 02:55 Cloudy with Mist and Fog 62 16.6 62 16.6 100 100 S 20 31 29.8 1009 5 8.04672 0 0
3:15 am 03:15 Cloudy 63 17.1 63 17.1 100 100 S 16 26 29.8 1009 7 11.265408 0 0
3:35 am 03:35 Cloudy 64 17.5 63 17.2 98 98 SSW 17 28 29.8 1009 7 11.265408 0 0
3:55 am 03:55 Cloudy 64 17.6 63 17.2 98 98 SSW 14 22 29.8 1009 7 11.265408 0 0
4:15 am 04:15 Cloudy 64 17.8 63 17.3 97 97 SSW 12 19 29.8 1009 7 11.265408 0 0
4:35 am 04:35 Cloudy 64 17.7 63 17.2 97 97 SW 10 17 29.8 1009 10 16.09344 0 0
4:55 am 04:55 Cloudy 64 17.7 63 17.2 97 97 SW 10 17 29.8 1009 10 16.09344 0 0
5:15 am 05:15 Cloudy 64 17.5 63 17 97 97 SW 8 13 29.8 1009 10 16.09344 0 0
5:35 am 05:35 Cloudy 64 17.5 63 17 97 97 WSW 9 15 29.8 1009 10 16.09344 0 0
5:55 am 05:55 Cloudy 64 17.5 62 16.8 96 96 WNW 8 13 29.83 1010 10 16.09344 0 0
6:15 am 06:15 Cloudy 63 17 60 15.5 91 91 WNW 8 13 29.83 1010 10 16.09344 0 0
6:35 am 06:35 Mostly Cloudy 61 15.9 58 14.5 91 91 WNW 10 17 29.85 1011 10 16.09344 0 0
6:55 am 06:55 Partly Cloudy 59 15.1 48 8.7 66 66 NW 22 35 29.85 1011 10 16.09344 0 0
7:15 am 07:15 Partly Cloudy 56 13.2 45 7.2 67 67 WNW 14 22 29.91 1013 10 16.09344 0 0
7:35 am 07:35 Clear 53 11.9 43 6.1 68 68 NW 13 20 29.94 1014 10 16.09344 0 0
7:55 am 07:55 Sunny 53 11.7 42 5.3 65 65 NW 15 24 29.94 1014 10 16.09344 0 0
8:15 am 08:15 Sunny 54 12.1 40 4.7 61 61 NW 16 26 29.91 1013 10 16.09344 0 0
8:35 am 08:35 Sunny 54 12.2 40 4.3 59 59 WNW 16 26 29.91 1013 10 16.09344 0 0
8:55 am 08:55 Sunny 54 12 39 3.9 58 58 WNW 14 22 29.97 1015 10 16.09344 0 0
9:15 am 09:15 Sunny 55 12.5 39 4 56 56 WNW 17 28 29.94 1014 10 16.09344 0 0
9:35 am 09:35 Sunny 55 12.5 39 4 56 56 NW 17 28 29.94 1014 10 16.09344 0 0
9:55 am 09:55 Sunny 55 12.9 40 4.3 56 56 NW 17 28 29.97 1015 10 16.09344 0 0
10:15 am 10:15 Sunny 56 13.5 41 5.1 57 57 NW 20 31 29.97 1015 10 16.09344 0 0
10:35 am 10:35 Sunny 56 13.6 42 5.6 59 59 NW 21 33 29.97 1015 10 16.09344 0 0
10:55 am 10:55 Sunny 58 14.4 42 5.7 56 56 NW 20 31 30 1016 10 16.09344 0 0
11:15 am 11:15 Sunny 58 14.5 43 6.1 57 57 NW 21 33 30 1016 10 16.09344 0 0
11:35 am 11:35 Sunny 60 15.3 42 5.7 53 53 NNW 21 33 30 1016 10 16.09344 0 0
11:55 am 11:55 Sunny 60 15.8 43 5.9 52 52 NNW 21 33 30 1016 10 16.09344 0 0
12:15 pm 12:15 Sunny 61 16 43 6.1 52 52 NW 18 30 30.03 1017 10 16.09344 0 0
12:35 pm 12:35 Sunny 62 16.5 42 5.7 49 49 NNW 20 31 30.03 1017 10 16.09344 0 0
12:55 pm 12:55 Sunny 62 16.8 42 5.8 48 48 NW 13 20 30 1016 10 16.09344 0 0
1:15 pm 13:15 Sunny 63 17.1 43 6.3 49 49 NNW 13 20 30 1016 10 16.09344 0 0
1:35 pm 13:35 Sunny 64 17.8 43 6.1 46 46 N 15 24 30 1016 10 16.09344 0 0
1:55 pm 13:55 Sunny 65 18.1 42 5.6 44 44 NNW 9 15 29.97 1015 10 16.09344 0 0
2:15 pm 14:15 Sunny 65 18.2 41 5.2 43 43 NW 14 22 29.97 1015 10 16.09344 0 0
2:35 pm 14:35 Sunny 65 18.6 40 4.6 40 40 N 18 30 29.97 1015 10 16.09344 0 0
2:55 pm 14:55 Sunny 65 18.6 40 4.6 40 40 NNW 14 22 29.97 1015 10 16.09344 0 0
3:15 pm 15:15 Sunny 66 18.8 39 4 38 38 NNW 10 17 29.97 1015 10 16.09344 0 0
3:35 pm 15:35 Sunny 66 18.9 38 3.5 36 36 NW 17 28 29.97 1015 10 16.09344 0 0
3:55 pm 15:55 Sunny 67 19.3 39 3.8 36 36 NW 13 20 29.97 1015 10 16.09344 0 0
4:15 pm 16:15 Sunny 67 19.2 39 3.8 36 36 NW 8 13 29.97 1015 10 16.09344 0 0
4:35 pm 16:35 Sunny 66 19.1 38 3.4 35 35 NNW 13 20 29.94 1014 10 16.09344 0 0
4:55 pm 16:55 Sunny 67 19.3 39 3.8 36 36 NNW 12 19 29.97 1015 10 16.09344 0 0
5:15 pm 17:15 Sunny 66 18.8 37 2.9 35 35 NNW 13 20 29.97 1015 10 16.09344 0 0
5:35 pm 17:35 Sunny 66 18.7 37 2.9 35 35 NNW 9 15 29.97 1015 10 16.09344 0 0
5:55 pm 17:55 Sunny 65 18.5 37 2.9 36 36 NNW 9 15 29.97 1015 10 16.09344 0 0
6:15 pm 18:15 Sunny 64 18 38 3.2 37 37 NNW 6 9 29.97 1015 10 16.09344 0 0
6:35 pm 18:35 Sunny 64 17.5 38 3.1 38 38 NW 8 13 29.97 1015 10 16.09344 0 0
6:55 pm 18:55 Sunny 61 16.3 37 2.7 40 40 NW 6 9 29.97 1015 10 16.09344 0 0
7:15 pm 19:15 Clear 58 14.6 38 3.1 46 46 WNW 5 7 30 1016 10 16.09344 0 0
7:35 pm 19:35 Clear 56 13.1 38 3.4 52 52 NW 6 9 30.06 1018 10 16.09344 0 0
7:55 pm 19:55 Clear 55 12.7 38 3.2 53 53 NW 6 9 30.06 1018 10 16.09344 0 0
8:15 pm 20:15 Clear 53 11.8 38 3.5 57 57 NW 5 7 30.06 1018 10 16.09344 0 0
8:35 pm 20:35 Clear 50 10 39 4.1 67 67 WNW 5 7 30.06 1018 10 16.09344 0 0
8:55 pm 20:55 Clear 52 10.9 38 3.6 61 61 Calm 30.06 1018 10 16.09344 0 0
9:15 pm 21:15 Clear 50 10.1 38 3.6 64 64 Calm 30.06 1018 10 16.09344 0 0
9:35 pm 21:35 Clear 48 9.1 39 4.1 71 71 Calm 30.09 1019 10 16.09344 0 0
9:55 pm 21:55 Clear 46 7.6 40 4.2 79 79 WSW 3 6 30.09 1019 10 16.09344 0 0
10:15 pm 22:15 Clear 46 7.5 40 4.7 83 83 Calm 30.12 1020 10 16.09344 0 0
10:35 pm 22:35 Clear 46 7.7 40 4.7 82 82 Calm 30.12 1020 10 16.09344 0 0
10:55 pm 22:55 Clear 43 6.3 40 4.2 87 87 Calm 30.15 1021 10 16.09344 0 0
11:15 pm 23:15 Clear 43 6.1 39 4 87 87 WNW 3 6 30.12 1020 10 16.09344 0 0
11:35 pm 23:35 Clear 43 6 39 3.7 85 85 Calm 30.15 1021 10 16.09344 0 0
11:55 pm 23:55 Clear 42 5.8 38 3.1 83 83 Calm 30.15 1021 10 16.09344 0 0

Powered by AerisWeather